Location: Observatory Park - Geauga Park District
(41.5832°N, 81.0716°W)
Time: 13:21:56
(UTC-04:00)

N. Korean satellite - Pass Details

Date: 28 September 2021
Orbit: 450 x 495 km, 97.3° (Epoch: 17 October)

Event Time Altitude Azimuth Distance (km) Brightness Sun altitude
Rises 05:58:17 0° 26° (NNE) 2,537 10.8 -15.7°
Reaches altitude 10° 06:00:39 10° 41° (NE) 1,662 10.0 -15.3°
Maximum altitude 06:03:33 23° 95° (E) 1,072 9.2 -14.7°
Drops below altitude 10° 06:06:27 10° 150° (SSE) 1,669 9.5 -14.2°
Sets 06:08:50 0° 165° (SSE) 2,551 10.3 -13.8°
